Change the Weather History Date:

Friday, September 28, 2012

  Actual Average Record
Temperature  
Mean Temperature 78 °F -  
Max Temperature 82 °F 81 °F 91 °F (2014)
Min Temperature 73 °F 71 °F 46 °F (1998)
Cooling Degree Days 12    
Growing Degree Days 28 (Base 50)    
Moisture  
Dew Point 68 °F    
Average Humidity 74    
Maximum Humidity 88    
Minimum Humidity 58    
Precipitation  
Precipitation 0.00 in - - ()
Sea Level Pressure  
Sea Level Pressure 30.01 in    
Wind  
Wind Speed 10 mph (ENE)    
Max Wind Speed 14 mph    
Max Gust Speed 23 mph    
Visibility 9 miles    
Events Rain    
Averages and records for this station are not official NWS values.
T = Trace of Precipitation, MM = Missing Value Source: NWS Daily Summary

Daily Weather History Graph

Daily Weather History Graph

Search for Another Location

Airport or City:

Trip Planner

Search our weather history database for the weather conditions in past years. The results will help you decide how hot, cold, wet, or windy it might be!

Date:

Astronomy

Sep. 28, 2012 Rise Set
Actual Time 6:21 AM HST 6:20 PM HST
Civil Twilight 5:59 AM HST 6:43 PM HST
Nautical Twilight 5:33 AM HST 7:08 PM HST
Astronomical Twilight 5:07 AM HST 7:34 PM HST
Moon 5:28 PM HST (9/28) 5:07 AM HST (9/28)
Length of Visible Light 12h 43m
Length of Day
11h 59m
Waxing Gibbous, 98% of the Moon is Illuminated
Sep 28
Waxing Gibbous
Sep 29
Full
Oct 7
Last Quarter
Oct 15
New
Oct 21
First Quarter

Hourly Weather History & Observations

Time (HST) Temp. Heat Index Dew Point Humidity Pressure Visibility Wind Dir Wind Speed Gust Speed Precip Events Conditions
12:11 AM 82.4 °F 84.6 °F 66.2 °F 58% 30.04 in 6.2 mi East 8.1 mph - N/A   Mostly Cloudy
12:57 AM 75.6 °F - 66.9 °F 74% 30.02 in 10.0 mi East 9.2 mph - N/A   Partly Cloudy
1:22 AM 75.2 °F - 69.8 °F 83% 30.03 in 6.2 mi ESE 11.5 mph - 0.00 in Rain Light Rain
1:57 AM 75.7 °F - 69.1 °F 80% 30.01 in 10.0 mi ENE 8.1 mph 17.3 mph 0.00 in   Mostly Cloudy
2:18 AM 73.4 °F - 69.8 °F 88% 30.01 in 6.2 mi ENE 6.9 mph - N/A   Scattered Clouds
2:32 AM 73.4 °F - 69.8 °F 88% 30.01 in 6.2 mi East 12.7 mph 17.3 mph N/A   Mostly Cloudy
2:39 AM 73.4 °F - 69.8 °F 88% 30.01 in 6.2 mi East 11.5 mph 18.4 mph N/A   Mostly Cloudy
2:57 AM 73.4 °F - 69.1 °F 86% 30.00 in 10.0 mi ENE 5.8 mph - N/A   Scattered Clouds
3:57 AM 73.8 °F - 69.1 °F 85% 29.99 in 10.0 mi ENE 8.1 mph 18.4 mph N/A   Clear
4:57 AM 75.6 °F - 69.1 °F 80% 29.99 in 10.0 mi East 10.4 mph 16.1 mph N/A   Scattered Clouds
5:57 AM 75.2 °F - 68.0 °F 78% 30.01 in 10.0 mi ENE 8.1 mph 16.1 mph N/A   Overcast
6:57 AM 75.6 °F - 69.1 °F 80% 30.01 in 10.0 mi ENE 12.7 mph 19.6 mph N/A   Partly Cloudy
7:31 AM 75.2 °F - 68.0 °F 78% 30.04 in 6.2 mi ENE 8.1 mph 20.7 mph N/A   Mostly Cloudy
7:38 AM 75.2 °F - 68.0 °F 78% 30.03 in 6.2 mi ENE 10.4 mph 17.3 mph N/A   Scattered Clouds
7:57 AM 75.2 °F - 68.0 °F 78% 30.03 in 10.0 mi East 11.5 mph 18.4 mph N/A   Partly Cloudy
8:57 AM 77.0 °F - 69.1 °F 76% 30.03 in 10.0 mi ENE 10.4 mph 18.4 mph N/A   Overcast
9:57 AM 77.0 °F - 70.0 °F 79% 30.04 in 6.0 mi Variable 4.6 mph 17.3 mph 0.00 in Rain Light Rain
10:57 AM 77.7 °F - 70.0 °F 77% 30.03 in 10.0 mi ENE 13.8 mph 18.4 mph 0.00 in   Overcast
11:57 AM 81.3 °F 84.1 °F 68.0 °F 64% 30.02 in 10.0 mi ENE 11.5 mph 20.7 mph N/A   Mostly Cloudy
12:57 PM 81.3 °F 84.5 °F 69.1 °F 66% 29.99 in 10.0 mi ENE 13.8 mph 23.0 mph N/A   Mostly Cloudy
1:57 PM 81.5 °F 83.6 °F 66.0 °F 59% 29.96 in 10.0 mi ENE 12.7 mph 21.9 mph N/A   Mostly Cloudy
2:57 PM 81.7 °F 84.5 °F 68.0 °F 63% 29.95 in 10.0 mi East 13.8 mph 19.6 mph N/A   Mostly Cloudy
3:57 PM 81.7 °F 84.2 °F 66.9 °F 61% 29.94 in 10.0 mi ENE 9.2 mph 23.0 mph N/A   Partly Cloudy
4:57 PM 81.3 °F 84.1 °F 68.0 °F 64% 29.95 in 10.0 mi ENE 9.2 mph 16.1 mph N/A   Mostly Cloudy
5:57 PM 81.3 °F 84.1 °F 68.0 °F 64% 29.97 in 10.0 mi East 10.4 mph - N/A   Partly Cloudy
6:57 PM 82.0 °F 84.5 °F 66.9 °F 60% 29.99 in 10.0 mi East 8.1 mph - N/A   Partly Cloudy
7:57 PM 76.1 °F - 69.8 °F 81% 30.00 in 10.0 mi East 6.9 mph 17.3 mph N/A   Mostly Cloudy
8:57 PM 77.4 °F - 68.0 °F 73% 30.02 in 10.0 mi ENE 9.2 mph 16.1 mph N/A   Mostly Cloudy
9:57 PM 76.6 °F - 66.9 °F 72% 30.03 in 10.0 mi ENE 11.5 mph 17.3 mph N/A   Scattered Clouds
10:57 PM 76.6 °F - 66.9 °F 72% 30.02 in 10.0 mi East 11.5 mph 18.4 mph N/A   Scattered Clouds
11:57 PM 77.5 °F - 66.9 °F 70% 30.02 in 10.0 mi ENE 9.2 mph 17.3 mph N/A   Overcast